Skip Page Navigation
NASA JPL Caltech
NASA Logo - Jet Propulsion Laboratory + View the NASA Portal
+ Center for Near-Earth Object Studies
JPL Home Earth Solar System Stars & Galaxies Technology
JPL Solar System Dynamics
BODIES ORBITS EPHEMERIDES TOOLS PHYSICAL DATA DISCOVERY FAQ SITE MAP
JPL Small-Body Database Browser
Search: [ help ]  
215172 (2000 GQ67)
Classification: Main-belt Asteroid          SPK-ID: 2215172
Ephemeris | Orbit Diagram | Orbital Elements | Mission Design | Physical Parameters | Discovery Circumstances | Close-Approach Data ]

[ show orbit diagram ]
Orbital Elements at Epoch 2459200.5 (2020-Dec-17.0) TDB
Reference: JPL 17 (heliocentric ecliptic J2000)
 Element Value Uncertainty (1-sigma)   Units 
e .1196564906807183 4.6578e-08  
a 2.701023672732951 1.8356e-08 au
q 2.377828658808181 1.2903e-07 au
i 3.294207868617049 5.0163e-06 deg
node 182.9577765746957 9.0086e-05 deg
peri 3.027359916870553 9.2777e-05 deg
M 254.8462032432636 2.4022e-05 deg
tp 2459674.101937184198
(2022-Apr-04.60193718)
0.00011061 TDB
period 1621.403150860445
4.44
1.6529e-05
4.525e-08
d
yr
n .2220299126771497 2.2634e-09 deg/d
Q 3.024218686657721 2.0553e-08 au
  Orbit Determination Parameters
   # obs. used (total)      345  
   data-arc span      7586 days (20.77 yr)  
   first obs. used      2000-04-05  
   last obs. used      2021-01-11  
   planetary ephem.      DE441  
   SB-pert. ephem.      SB441-N16  
   condition code      0  
   norm. resid. RMS      .55977  
   source      ORB  
   producer      Otto Matic  
   solution date      2021-Apr-13 23:49:40  

Additional Information
 Earth MOID = 1.37875 au 
 Jupiter MOID = 1.93158 au 
 T_jup = 3.355 
[ show covariance matrix ]

Ephemeris | Orbit Diagram | Orbital Elements | Mission Design | Physical Parameters | Discovery Circumstances | Close-Approach Data ]

Physical Parameter Table
Parameter Symbol Value Units Sigma Reference Notes
absolute magnitude H 16.15   n/a MPCxxxxx  

215172 (2000 GQ67)          Discovered 2000-Apr-05 by LINEAR at Socorro
Reference: 20090607/Numbers.arcLast Updated: 2009-06-08

[ hide close-approach data ]
Close-Approach Data   ...sorted by Date/Time (TDB)
Date/Time (TDB) Time Uncertainty
(days_HH:MM)
Body Nominal Distance (au) Minimum Distance (au) Maximum Distance (au) V-relative (km/s) V-infinity (km/s) JD (TDB) Time Uncertainty (minutes) Semi-major axis (km) Semi-minor axis (km) range-LOV angle (deg) N-sigma BP Orbit Ref. Reference Modified
1904-Dec-08 09:45 00:03 Jupiter 1.9841315659967 1.9841304215809 1.98413271041757 2.76710875700197 2.60827417145871 2416822.906278084 3.33670258588303 188.892224399391 10.992514334865 79.8165220323592 2265857.05776597 T 17 CATAB v2.0f-lin.ifort 2021-Apr-13 23:49:40 2021-Apr-13 23:49
1940-May-24 04:36 00:02 Jupiter 1.95976528959221 1.95976455896648 1.95976602021995 2.67324890966036 2.50636141341054 2429773.691515394 2.27806398572064 138.67378129617 9.96218981993321 82.5604482605319 2283770.021841 T 17 CATAB v2.0f-lin.ifort 2021-Apr-13 23:49:40 2021-Apr-13 23:49
1975-Nov-12 03:14 00:01 Jupiter 1.94981720983013 1.9498167073549 1.94981771230558 2.62687705011637 2.45594392387399 2442728.634827106 1.22812305803075 86.1536033073063 9.61657192843455 83.6931963464135 2334332.25523984 T 17 CATAB v2.0f-lin.ifort 2021-Apr-13 23:49:40 2021-Apr-13 23:49
2011-May-02 17:37 < 00:01 Jupiter 1.93488084708015 1.93488043378074 1.93488126037944 2.57013710628611 2.39375758344312 2455684.234289978 0.243151673556525 48.001533649984 9.47090793593491 83.730439694778 2414566.03764821 T 17 CATAB v2.0f-lin.ifort 2021-Apr-13 23:49:40 2021-Apr-13 23:49
2046-Oct-22 10:12 < 00:01 Jupiter 1.93320057768105 1.93320018037402 1.93320097498797 2.5501666702288 2.37214242617023 2468640.924866343 0.890206000302067 68.9865348473723 10.0745668991663 88.5499687484983 2432441.37405415 T 17 CATAB v2.0f-lin.ifort 2021-Apr-13 23:49:40 2021-Apr-13 23:49
2082-Apr-15 16:09 00:02 Jupiter 1.9275986284434 1.92759824013757 1.92759901674912 2.52602554596814 2.34562743102351 2481600.173242774 1.93496641210452 125.048070015935 10.2600515326799 -89.404900816416 2454203.57589025 T 17 CATAB v2.0f-lin.ifort 2021-Apr-13 23:49:40 2021-Apr-13 23:49
2117-Oct-07 02:10 00:03 Jupiter 1.93093925481649 1.93093884652994 1.93093966310379 2.52555634343053 2.34544628255289 2494557.590444514 3.01191715116911 188.678377486291 10.4093784278476 -87.591863695505 2532131.1394488 T 17 CATAB v2.0f-lin.ifort 2021-Apr-13 23:49:40 2021-Apr-13 23:49
2153-Mar-31 02:09 00:04 Jupiter 1.93416924347089 1.9341687124509 1.93416977449693 2.53036828966472 2.35093857575438 2507516.589672070 4.1315134317801 255.829806176322 10.3600618779668 -86.4905386711107 2599807.4274028 T 17 CATAB v2.0f-lin.ifort 2021-Apr-13 23:49:40 2021-Apr-13 23:49
2188-Sep-19 04:40 00:05 Jupiter 1.93854246271077 1.93854158539664 1.93854334004122 2.54065046963952 2.36242019454416 2520472.694694297 5.30635475955029 325.30198505827 10.3774060256619 -84.9105568939886 2674399.20729829 T 17 CATAB v2.0f-lin.ifort 2021-Apr-13 23:49:40 2021-Apr-13 23:49
Ephemeris | Orbit Diagram | Orbital Elements | Mission Design | Physical Parameters | Discovery Circumstances | Close-Approach Data ]
ABOUT SSD CREDITS/AWARDS PRIVACY/COPYRIGHT GLOSSARY LINKS
FirstGov 2021-Jun-15 17:47 UT
(server date/time)  
NASA Home Page
Site Manager:   Ryan S. Park
Webmaster  Alan B. Chamberlin